Regional Weather Roundup
Issued by NWS Sterling, VA

Home | Current Version | Previous Version | Graphics & Text | Print | Product List | Glossary On
Versions: 1 2 3 4 5 6 7 8 9 10 11 12 13 14 15 16 17 18 19 20 21 22 23 24 25 26 27 28 29 30 31 32 33 34 35 36 37 38 39 40 41 42 43 44 45 46 47 48 49 50
000
ASUS41 KLWX 020510
RWRLWX

REGIONAL WEATHER ROUNDUP
NATIONAL WEATHER SERVICE BALTIMORE MD/WASHINGTON DC
100 AM EDT SUN AUG 02 2015

Note: "FAIR" indicates few or no clouds below 12,000 feet
with no significant weather and/or obstructions to visibility.
 TC=TEMPERATURE CELSIUS

 * =Non NWS site. Station does not report precipitation (e.g. rain,
    snow, etc.), thunder, or fog.

DCZ001-MDZ009-015-VAZ040>042-051-053>054-020600-
WASHINGTON METRO

CITY           SKY/WX    TMP DP  RH WIND       PRES   REMARKS
WASHINGTON NAT MOCLDY    80  59  48 N5        29.91R
DULLES         CLOUDY    66  60  81 CALM      29.93R
ANDREWS AFB    PTCLDY    69  62  78 CALM      29.91
FT BELVOIR     PTCLDY    68  65  92 CALM      29.91R
COLLEGE PARK*  MOCLDY    68  63  83 CALM      29.91R
LEESBURG*      PTCLDY    72  61  68 W5        29.93S
MANASSAS*      PTCLDY    68  66  94 CALM      29.92S
GAITHERSBURG*  PTCLDY    64  57  77 CALM      29.96R

$$

MDZ006>007-011-014-020600-
BALTIMORE METRO

CITY           SKY/WX    TMP DP  RH WIND       PRES   REMARKS
BWI AIRPORT    MOCLDY    70  62  76 CALM      29.91R
MD SCIENCE CTR   N/A     78  58  49 MISG      29.91R
MARTIN STATE   CLEAR     70  64  83 CALM      29.91S
ANNAPOLIS      CLEAR     75  67  76 NW3       29.89R
FORT MEADE*    MOCLDY    64  63  94 CALM      29.94R

$$

MDZ012-015-019>023-020600-
MARYLAND EASTERN SHORE

CITY           SKY/WX    TMP DP  RH WIND       PRES   REMARKS
OCEAN CITY     MOCLDY    76  66  71 NE3       29.89F
SALISBURY      PTCLDY    74  66  76 NE10      29.90R
BAY BRIDGE AP*   N/A     77  63  61 N5        29.90R
CAMBRIDGE*     PTCLDY    73  68  83 CALM      29.89R
EASTON*        PTCLDY    73  73 100 CALM      29.93R

$$

MDZ017>025-020600-
SOUTHERN MARYLAND

CITY           SKY/WX    TMP DP  RH WIND       PRES   REMARKS
PATUXENT RIVER PTCLDY    78  73  84 NW7       29.88R
ST INIGOES     CLEAR     71  68  90 CALM      29.88R
LEONARDTOWN*   PTCLDY    73  66  78 CALM      29.91S

$$

MDZ003>005-020600-
NORTH CENTRAL MARYLAND

CITY           SKY/WX    TMP DP  RH WIND       PRES   REMARKS
FREDERICK*     CLEAR     64  63  94 CALM      29.95R
HAGERSTOWN APT CLEAR     71  56  58 W3        29.93R
WESTMINSTER*   CLEAR     70  59  68 CALM      29.93R

$$

MDZ501>502-020600-
WESTERN MARYLAND

CITY           SKY/WX    TMP DP  RH WIND       PRES   REMARKS
OAKLAND*       CLEAR     61 N/A N/A SW5       30.06S
CUMBERLAND*    CLEAR     64  59  82 CALM      30.00S

$$

VAZ025>031-020600-
SHENANDOAH VALLEY

CITY           SKY/WX    TMP DP  RH WIND       PRES   REMARKS
WINCHESTER*    CLEAR     66  55  68 CALM      29.95S
FRONT ROYAL*   FAIR      64  57  77 S7        29.94S
LURAY*         FAIR      66  59  77 SE3       29.97R
NEW MARKET*    FAIR      61  58  90 SW3       29.97S
STAUNTON*      CLEAR     63  57  80 CALM      30.00S
WAYNESBORO*    FAIR      61  57  84 SW3       30.00S

$$

WVZ021-048>050-054>055-020600-
EASTERN WEST VIRGINIA PANHANDLE

CITY           SKY/WX    TMP DP  RH WIND       PRES   REMARKS
MARTINSBURG    CLEAR     64  57  78 S3        29.94R
PETERSBURG*    CLEAR    N/A N/A N/A CALM      30.00R

$$

VAZ036>039-050-020600-
CENTRAL FOOTHILLS

CITY           SKY/WX    TMP DP  RH WIND       PRES   REMARKS
CHARLOTTESVILL CLEAR     67  60  78 CALM      29.94R
CULPEPER*      MOCLDY    64  64  97 CALM      29.94R
ORANGE*        PTCLDY    66  63  88 CALM      29.95S
GORDONSVILLE*  FAIR      64  63  94 CALM      29.93S
WARRENTON*     FAIR      64  64  99 CALM      29.92S

$$

VAZ055>057-020600-
NORTH AND CENTRAL PIEDMONT

CITY           SKY/WX    TMP DP  RH WIND       PRES   REMARKS
FREDERICKSBRG* PTCLDY    74  66  75 CALM      29.91R
STAFFORD*      PTCLDY    68  63  84 CALM      29.96R

$$

NCZ024-NYZ072-PAZ021-071-VAZ022-071-020600-
OTHER REGIONAL OBSERVATIONS

CITY           SKY/WX    TMP DP  RH WIND       PRES   REMARKS
NEW YORK CITY  MOCLDY    77  54  44 CALM      29.89R
PHILADELPHIA   PTCLDY    77  62  59 SW5       29.89R
PITTSBURGH     CLEAR     67  56  67 CALM      29.96R
ROANOKE        CLEAR     67  56  67 NW3       30.01S
RICHMOND       PTCLDY    78  66  66 CALM      29.90R
RALEIGH        PTCLDY    70  64  81 CALM      29.94R

$$

ANZ530>537-020600-
MARINE OBSERVATIONS

STATION/POSITION TIME  TEMP    WIND        PRES
                       AIR SEA DIR/SP/G
                 (UTC) (F)     (DEG/KT/KT) (MB)
THOMAS PT LIGHT  NOT AVBL
BALT KEY BRIDGE  0400   81     300/  8/  9 1011.9R
COVE POINT       0400   82      20/  2/  4 1012.3R
LEWISETTA        0400   80 85  280/  2/  4 1011.3R
SOLOMONS ISLAND  0400      84                N/A
PINEY POINT      0400           50/  3/  4   N/A

$$




USA.gov is the U.S. government's official web portal to all federal, state and local government web resources and services.